CZ-6A DEB, 61401

Orbit data source: Space-Track

CZ-6A DEB, 61401 is space debris in LEO originally from a launch on Tue, 06 Aug 2024 UTC launched from the Taiyaun Space Center, China (TSC). Debris objects in space refer to the collection of defunct objects orbiting the Earth. Examples of debris include non-operational satellites, rocket bodies, and fragments generated from explosions, collisions, or faulty payload assembly.

Loading next visibility...
Identifier
61401, 2024-140XS
Orbit
LEO
Country
Flag of CNCN / PRC
Related business
Manufacturer
SAST
Mission
Spacecraft
Bus & Motor
Unknown
Mass
Unknown
Launch date (UTC)
2024-08-06 (1 year ago)
Launch vehicle
Unknown
Launch site
Taiyaun Space Center, China (TSC)
Object type
Payload
Rocket body
Debris
Shape & HBR
Unknown shape, 0.1 m
Radar Cross Section
Small (<0.1 m²)

Expand to show TLE details & history
Last TLE update: 1 day ago

TLE from 1 day ago
0 CZ-6A DEB
1 61401U 24140XS  25284.03635687  .00004217  00000-0  18453-2 0  9999
2 61401  89.0028 302.8889 0048364 285.0424  74.5419 14.22996510 56357
Epoch: 2025-10-11T00:52Z
TLE epoch observation values (Epoch: 2025-10-11T00:52:21.233Z)
Latitude
0.00004°
Longitude
-90.07318°
Altitude
809.176 km
Speed
7.453 km/s
True Right ascension
20h 11m 33s
True Declination
0° 00' 00"
Sunlit
Object was in daylight at epoch
Visualization orbit readout
Latitude
Unknown
Longitude
Unknown
Altitude
Unknown
Speed
Unknown
Apparent Right ascension
Unknown
Apparent Declination
Unknown
Sunlit
N/A
Visualization observer readout
Local Sidereal Time
01:45:40
Azimuth
Unknown
Elevation
Unknown
Doppler factor
Unknown
Orbital elements
Apogee altitude
846.959 km
Perigee altitude
777.408 km
Semi-major axis
7,190.32 km
Eccentricity
0.00484
Inclination
89.0028°
RAAN
302.8889°
Arg. of periapsis
285.0424°
True anomaly
75.07692°
Mean anomaly
74.5419°
Eccentric anomaly
74.80932°
Mean motion
3.55976 °/min
Orbital period
101.13 mins
BSTAR
0.0018453
Loading maneuver chart data...
Computing Atmospheric mass density...
Loading historical data...
Loading historical data...
Loading historical data...
Loading historical data...
Loading historical data...
Loading historical data...
Loading historical data...

Documentation

Showing up to 5 results
|